ETH712 LIRF-LSGG

Flight info

Callsign ETH712
Flight time 1h 8m
Altitude 38000
Route NEMBO DCT GOVGO DCT SPEZI DCT IDONA DCT TONDA DCT AOSTA/N0462F300 L615 BANKO
Aircraft B789/H-SDE1E2E3FGHIJ2J3J4J5M1RWXY/LB1D1

Departure

Time 2026-05-07 14:16
Airport Rome–Fiumicino Leonardo da Vinci International Airport (LIRF)

Arrival

Time 2026-05-07 15:24
Airport Geneva International Airport (LSGG)
Time Latitude Longitude Altitude Speed Heading
2026-05-07 13:45 41.79863 12.24744 22 ft 0 kts 205°
2026-05-07 14:04 41.79871 12.24749 21 ft 4 kts 205°
2026-05-07 14:04 41.79896 12.24764 19 ft 4 kts 205°
2026-05-07 14:04 41.79919 12.24778 21 ft 2 kts 204°
2026-05-07 14:05 41.79939 12.24791 22 ft 4 kts 204°
2026-05-07 14:05 41.79962 12.24797 23 ft 3 kts 160°
2026-05-07 14:05 41.79984 12.24781 20 ft 4 kts 121°
2026-05-07 14:05 41.79988 12.24750 22 ft 4 kts 73°
2026-05-07 14:06 41.79978 12.24716 20 ft 4 kts 66°
2026-05-07 14:06 41.79975 12.24705 22 ft 4 kts 70°
2026-05-07 14:10 41.79976 12.24711 19 ft 2 kts 70°
2026-05-07 14:10 41.79985 12.24743 21 ft 5 kts 70°
2026-05-07 14:10 41.80005 12.24785 19 ft 5 kts 34°
2026-05-07 14:10 41.80040 12.24789 19 ft 6 kts 347°
2026-05-07 14:11 41.80101 12.24770 19 ft 12 kts 353°
2026-05-07 14:11 41.80182 12.24805 20 ft 14 kts 50°
2026-05-07 14:11 41.80205 12.24950 19 ft 18 kts 92°
2026-05-07 14:11 41.80226 12.25140 19 ft 23 kts 70°
2026-05-07 14:12 41.80286 12.25354 20 ft 25 kts 70°
2026-05-07 14:12 41.80349 12.25588 22 ft 29 kts 70°
2026-05-07 14:12 41.80424 12.25858 21 ft 32 kts 69°
2026-05-07 14:12 41.80487 12.26087 21 ft 20 kts 70°
2026-05-07 14:13 41.80541 12.26282 25 ft 24 kts 69°
2026-05-07 14:13 41.80606 12.26515 23 ft 29 kts 70°
2026-05-07 14:13 41.80677 12.26780 20 ft 28 kts 70°
2026-05-07 14:13 41.80723 12.26947 21 ft 16 kts 70°
2026-05-07 14:14 41.80759 12.27049 20 ft 8 kts 40°
2026-05-07 14:14 41.80778 12.27054 19 ft 1 kts 345°
2026-05-07 14:14 41.80821 12.27033 19 ft 11 kts 340°
2026-05-07 14:14 41.80875 12.27008 19 ft 13 kts 340°
2026-05-07 14:15 41.80951 12.26961 18 ft 7 kts 307°
2026-05-07 14:15 41.80952 12.26908 18 ft 7 kts 251°
2026-05-07 14:15 41.80892 12.26690 19 ft 53 kts 250°
2026-05-07 14:15 41.80685 12.25936 24 ft 118 kts 250°
2026-05-07 14:16 41.80335 12.24675 211 ft 157 kts 252°
2026-05-07 14:16 41.79993 12.23391 1083 ft 145 kts 253°
2026-05-07 14:16 41.79624 12.22054 1587 ft 157 kts 250°
2026-05-07 14:16 41.79278 12.20618 1995 ft 170 kts 265°
2026-05-07 14:17 41.79409 12.19016 2460 ft 178 kts 276°
2026-05-07 14:17 41.79346 12.17364 3194 ft 179 kts 265°
2026-05-07 14:17 41.79193 12.15677 3733 ft 184 kts 262°
2026-05-07 14:17 41.79077 12.13896 4013 ft 205 kts 269°
2026-05-07 14:18 41.79082 12.11933 4272 ft 213 kts 270°
2026-05-07 14:18 41.79056 12.09935 4801 ft 219 kts 269°
2026-05-07 14:18 41.79107 12.07826 5161 ft 233 kts 270°
2026-05-07 14:18 41.79053 12.05620 5524 ft 246 kts 268°
2026-05-07 14:19 41.79013 12.03272 5957 ft 260 kts 269°
2026-05-07 14:19 41.79014 12.00802 6565 ft 269 kts 270°
2026-05-07 14:19 41.79020 11.98278 7326 ft 272 kts 269°
2026-05-07 14:19 41.79014 11.95734 8122 ft 273 kts 269°
2026-05-07 14:20 41.79004 11.93172 8906 ft 276 kts 269°
2026-05-07 14:20 41.78995 11.90594 9687 ft 278 kts 269°
2026-05-07 14:20 41.78988 11.87989 10354 ft 283 kts 269°
2026-05-07 14:20 41.78978 11.85271 10736 ft 299 kts 268°
2026-05-07 14:21 41.78967 11.82407 11125 ft 315 kts 268°
2026-05-07 14:21 41.78955 11.79400 11483 ft 331 kts 268°
2026-05-07 14:21 41.78943 11.76264 11977 ft 341 kts 268°
2026-05-07 14:21 41.78930 11.73070 12689 ft 344 kts 268°
2026-05-07 14:22 41.78914 11.69853 13411 ft 347 kts 268°
2026-05-07 14:22 41.78898 11.66598 14099 ft 350 kts 268°
2026-05-07 14:22 41.78880 11.63329 14772 ft 351 kts 268°
2026-05-07 14:22 41.78862 11.60054 15429 ft 353 kts 268°
2026-05-07 14:23 41.79100 11.56773 15950 ft 359 kts 282°
2026-05-07 14:23 41.80044 11.53658 16561 ft 365 kts 297°
2026-05-07 14:23 41.81607 11.50940 17211 ft 370 kts 307°
2026-05-07 14:23 41.83320 11.48351 17842 ft 372 kts 308°
2026-05-07 14:24 41.85053 11.45760 18377 ft 375 kts 308°
2026-05-07 14:24 41.86787 11.43113 18871 ft 378 kts 307°
2026-05-07 14:24 41.88513 11.40447 19366 ft 380 kts 307°
2026-05-07 14:24 41.90264 11.37761 19875 ft 382 kts 307°
2026-05-07 14:25 41.92001 11.35110 20343 ft 384 kts 307°
2026-05-07 14:25 41.93197 11.33282 20671 ft 385 kts 307°
2026-05-07 14:25 41.95539 11.29685 21308 ft 388 kts 307°
2026-05-07 14:25 41.97319 11.26947 21753 ft 390 kts 307°
2026-05-07 14:26 41.99110 11.24194 22203 ft 392 kts 307°
2026-05-07 14:26 42.00915 11.21418 22648 ft 394 kts 307°
2026-05-07 14:26 42.02722 11.18635 23079 ft 396 kts 306°
2026-05-07 14:26 42.04542 11.15827 23514 ft 398 kts 306°
2026-05-07 14:27 42.06365 11.13013 23863 ft 400 kts 306°
2026-05-07 14:27 42.08194 11.10189 24244 ft 401 kts 306°
2026-05-07 14:27 42.10030 11.07350 24597 ft 402 kts 306°
2026-05-07 14:27 42.11865 11.04509 24956 ft 403 kts 306°
2026-05-07 14:28 42.13711 11.01648 25299 ft 404 kts 305°
2026-05-07 14:28 42.15556 10.98787 25648 ft 405 kts 305°
2026-05-07 14:28 42.17410 10.95911 25983 ft 407 kts 305°
2026-05-07 14:28 42.19266 10.93025 26323 ft 408 kts 305°
2026-05-07 14:29 42.21129 10.90128 26640 ft 409 kts 305°
2026-05-07 14:29 42.22993 10.87226 26970 ft 411 kts 305°
2026-05-07 14:29 42.24872 10.84298 27291 ft 412 kts 305°
2026-05-07 14:29 42.26765 10.81389 27607 ft 415 kts 307°
2026-05-07 14:30 42.28976 10.78792 27875 ft 425 kts 316°
2026-05-07 14:30 42.31525 10.76674 28179 ft 436 kts 326°
2026-05-07 14:30 42.34324 10.75119 28506 ft 444 kts 333°
2026-05-07 14:30 42.37236 10.73703 28816 ft 446 kts 332°
2026-05-07 14:31 42.40161 10.72268 29140 ft 447 kts 332°
2026-05-07 14:31 42.43090 10.70810 29462 ft 449 kts 332°
2026-05-07 14:31 42.46028 10.69347 29791 ft 451 kts 332°
2026-05-07 14:31 42.48983 10.67886 30094 ft 453 kts 332°
2026-05-07 14:32 42.51957 10.66416 30374 ft 455 kts 332°
2026-05-07 14:32 42.54935 10.64936 30662 ft 457 kts 332°
2026-05-07 14:32 42.57924 10.63447 30920 ft 460 kts 332°
2026-05-07 14:32 42.60941 10.61946 31194 ft 462 kts 332°
2026-05-07 14:33 42.63964 10.60443 31467 ft 464 kts 332°
2026-05-07 14:33 42.67002 10.58928 31741 ft 466 kts 332°
2026-05-07 14:33 42.70057 10.57403 32020 ft 469 kts 332°
2026-05-07 14:33 42.73121 10.55871 32319 ft 471 kts 332°
2026-05-07 14:34 42.76206 10.54328 32658 ft 472 kts 332°
2026-05-07 14:34 42.79288 10.52787 33017 ft 472 kts 332°
2026-05-07 14:34 42.82375 10.51241 33441 ft 472 kts 332°
2026-05-07 14:34 42.85457 10.49694 33847 ft 471 kts 332°
2026-05-07 14:35 42.88531 10.48148 34203 ft 471 kts 332°
2026-05-07 14:35 42.91606 10.46602 34539 ft 471 kts 332°
2026-05-07 14:35 42.94682 10.45055 34878 ft 471 kts 332°
2026-05-07 14:35 42.97753 10.43507 35229 ft 470 kts 332°
2026-05-07 14:36 43.00778 10.41981 35564 ft 470 kts 332°
2026-05-07 14:36 43.03845 10.40432 35900 ft 470 kts 332°
2026-05-07 14:36 43.06907 10.38884 36228 ft 469 kts 332°
2026-05-07 14:36 43.09977 10.37329 36434 ft 471 kts 332°
2026-05-07 14:37 43.13053 10.35771 36689 ft 470 kts 332°
2026-05-07 14:37 43.18768 10.31842 37167 ft 453 kts 317°
2026-05-07 14:37 43.21183 10.29111 37416 ft 448 kts 311°
2026-05-07 14:38 43.23510 10.26256 37656 ft 449 kts 311°
2026-05-07 14:38 43.25843 10.23404 37888 ft 450 kts 311°
2026-05-07 14:38 43.28186 10.20553 38000 ft 451 kts 311°
2026-05-07 14:38 43.30533 10.17689 37996 ft 451 kts 311°
2026-05-07 14:39 43.35202 10.11967 37990 ft 449 kts 311°
2026-05-07 14:39 43.39872 10.06237 38007 ft 452 kts 311°
2026-05-07 14:40 43.44573 10.00458 38005 ft 454 kts 311°
2026-05-07 14:40 43.49267 9.94674 38002 ft 452 kts 311°
2026-05-07 14:41 43.53943 9.88899 38000 ft 451 kts 311°
2026-05-07 14:41 43.58607 9.83127 38019 ft 450 kts 311°
2026-05-07 14:42 43.63274 9.77335 38001 ft 453 kts 311°
2026-05-07 14:42 43.67965 9.71507 38000 ft 454 kts 311°
2026-05-07 14:43 43.72656 9.65662 38005 ft 454 kts 311°
2026-05-07 14:43 43.77373 9.59901 37995 ft 459 kts 317°
2026-05-07 14:44 43.82898 9.55332 38015 ft 464 kts 324°
2026-05-07 14:44 43.88536 9.50926 38005 ft 465 kts 324°
2026-05-07 14:45 43.94170 9.46489 38004 ft 466 kts 324°
2026-05-07 14:45 43.99692 9.41864 37988 ft 457 kts 316°
2026-05-07 14:46 44.04768 9.36526 38003 ft 459 kts 317°
2026-05-07 14:46 44.09885 9.31204 37998 ft 459 kts 317°
2026-05-07 14:47 44.14978 9.25841 38002 ft 459 kts 317°
2026-05-07 14:47 44.20087 9.20486 37996 ft 459 kts 317°
2026-05-07 14:48 44.25175 9.15119 38015 ft 459 kts 317°
2026-05-07 14:48 44.30281 9.09733 38015 ft 460 kts 317°
2026-05-07 14:49 44.35365 9.04353 38013 ft 461 kts 317°
2026-05-07 14:49 44.40462 8.98950 38026 ft 459 kts 317°
2026-05-07 14:50 44.45539 8.93554 38025 ft 457 kts 317°
2026-05-07 14:50 44.50609 8.88152 38021 ft 458 kts 317°
2026-05-07 14:51 44.55686 8.82734 38008 ft 458 kts 317°
2026-05-07 14:51 44.60763 8.77301 38009 ft 459 kts 317°
2026-05-07 14:52 44.65836 8.71864 38000 ft 458 kts 317°
2026-05-07 14:52 44.70909 8.66409 37986 ft 460 kts 317°
2026-05-07 14:53 44.75964 8.60965 37981 ft 461 kts 317°
2026-05-07 14:53 44.81057 8.55468 37982 ft 460 kts 317°
2026-05-07 14:54 44.86136 8.49972 37979 ft 459 kts 317°
2026-05-07 14:54 44.91181 8.44499 37974 ft 457 kts 317°
2026-05-07 14:55 44.96220 8.39022 37979 ft 458 kts 317°
2026-05-07 14:55 45.01279 8.33508 37983 ft 460 kts 317°
2026-05-07 14:56 45.06353 8.27970 37980 ft 461 kts 317°
2026-05-07 14:56 45.11390 8.22396 37969 ft 456 kts 314°
2026-05-07 14:57 45.16103 8.16400 37964 ft 456 kts 313°
2026-05-07 14:57 45.20838 8.10403 37989 ft 457 kts 313°
2026-05-07 14:58 45.25584 8.04363 37975 ft 458 kts 313°
2026-05-07 14:58 45.30319 7.98326 37992 ft 457 kts 313°
2026-05-07 14:59 45.35005 7.92339 37972 ft 454 kts 313°
2026-05-07 14:59 45.39698 7.86325 37971 ft 454 kts 313°
2026-05-07 15:00 45.44391 7.80300 37974 ft 455 kts 313°
2026-05-07 15:00 45.49089 7.74254 37987 ft 454 kts 313°
2026-05-07 15:01 45.52989 7.69222 37984 ft 455 kts 313°
2026-05-07 15:01 45.57667 7.63179 37989 ft 453 kts 313°
2026-05-07 15:02 45.62346 7.57115 37991 ft 454 kts 313°
2026-05-07 15:02 45.64669 7.54103 37594 ft 448 kts 313°
2026-05-07 15:02 45.66977 7.51106 36839 ft 446 kts 313°
2026-05-07 15:03 45.69264 7.48130 36129 ft 443 kts 312°
2026-05-07 15:03 45.71526 7.45183 35424 ft 437 kts 312°
2026-05-07 15:03 45.73738 7.42300 34821 ft 433 kts 312°
2026-05-07 15:03 45.75891 7.39336 34126 ft 425 kts 307°
2026-05-07 15:04 45.77662 7.36006 33378 ft 417 kts 298°
2026-05-07 15:04 45.79039 7.32322 32654 ft 412 kts 290°
2026-05-07 15:04 45.79968 7.28497 31952 ft 412 kts 282°
2026-05-07 15:04 45.80481 7.24465 31277 ft 410 kts 275°
2026-05-07 15:05 45.80798 7.20403 30634 ft 410 kts 275°
2026-05-07 15:05 45.81120 7.16363 29975 ft 406 kts 275°
2026-05-07 15:05 45.81448 7.12372 29236 ft 400 kts 275°
2026-05-07 15:05 45.81869 7.08472 28553 ft 394 kts 282°
2026-05-07 15:06 45.82724 7.04747 27915 ft 394 kts 290°
2026-05-07 15:06 45.84012 7.01254 27286 ft 398 kts 300°
2026-05-07 15:06 45.85576 6.97985 26665 ft 398 kts 302°
2026-05-07 15:06 45.87141 6.94727 26057 ft 392 kts 302°
2026-05-07 15:07 45.88670 6.91511 25442 ft 388 kts 301°
2026-05-07 15:07 45.90180 6.88322 24835 ft 386 kts 302°
2026-05-07 15:07 45.91694 6.85136 24220 ft 386 kts 302°
2026-05-07 15:07 45.93208 6.81953 23605 ft 385 kts 302°
2026-05-07 15:08 45.94709 6.78792 22919 ft 381 kts 302°
2026-05-07 15:08 45.96189 6.75664 22283 ft 375 kts 302°
2026-05-07 15:08 45.97628 6.72572 21776 ft 370 kts 301°
2026-05-07 15:08 45.99050 6.69475 21269 ft 372 kts 301°
2026-05-07 15:09 46.00484 6.66368 20794 ft 373 kts 301°
2026-05-07 15:09 46.01923 6.63274 20292 ft 372 kts 301°
2026-05-07 15:09 46.03357 6.60180 19821 ft 370 kts 301°
2026-05-07 15:09 46.04779 6.57099 19340 ft 369 kts 301°
2026-05-07 15:10 46.06179 6.54071 18866 ft 367 kts 302°
2026-05-07 15:10 46.07615 6.51054 18393 ft 364 kts 302°
2026-05-07 15:10 46.09046 6.48062 17861 ft 362 kts 302°
2026-05-07 15:10 46.10460 6.45071 17366 ft 359 kts 302°
2026-05-07 15:11 46.11857 6.42097 16875 ft 357 kts 302°
2026-05-07 15:11 46.13238 6.39164 16400 ft 349 kts 302°
2026-05-07 15:11 46.14585 6.36314 15947 ft 339 kts 302°
2026-05-07 15:11 46.15981 6.33633 15476 ft 332 kts 311°
2026-05-07 15:12 46.17863 6.31750 14977 ft 330 kts 331°
2026-05-07 15:12 46.20065 6.30890 14537 ft 328 kts 351°
2026-05-07 15:12 46.22322 6.31142 14108 ft 326 kts 12°
2026-05-07 15:12 46.24350 6.32433 13672 ft 307 kts 32°
2026-05-07 15:13 46.25885 6.34393 13362 ft 289 kts 45°
2026-05-07 15:13 46.27268 6.36457 13023 ft 283 kts 45°
2026-05-07 15:13 46.28629 6.38477 12674 ft 278 kts 45°
2026-05-07 15:13 46.29980 6.40460 12325 ft 275 kts 45°
2026-05-07 15:14 46.31317 6.42426 11962 ft 274 kts 45°
2026-05-07 15:14 46.32643 6.44395 11609 ft 272 kts 46°
2026-05-07 15:14 46.33958 6.46350 11255 ft 271 kts 46°
2026-05-07 15:14 46.35274 6.48301 10904 ft 269 kts 46°
2026-05-07 15:15 46.36577 6.50233 10551 ft 267 kts 46°
2026-05-07 15:15 46.37930 6.52173 10387 ft 276 kts 44°
2026-05-07 15:15 46.39289 6.53960 10202 ft 256 kts 38°
2026-05-07 15:15 46.40959 6.54741 9786 ft 260 kts 360°
2026-05-07 15:16 46.42618 6.53998 9551 ft 256 kts 324°
2026-05-07 15:16 46.43696 6.52090 9331 ft 238 kts 295°
2026-05-07 15:16 46.44313 6.49946 9091 ft 223 kts 288°
2026-05-07 15:16 46.44841 6.47939 8886 ft 210 kts 288°
2026-05-07 15:17 46.45130 6.45946 8469 ft 202 kts 266°
2026-05-07 15:17 46.44909 6.43979 8102 ft 192 kts 258°
2026-05-07 15:17 46.44582 6.42137 7823 ft 189 kts 246°
2026-05-07 15:17 46.43846 6.40501 7547 ft 195 kts 231°
2026-05-07 15:18 46.42918 6.39091 7085 ft 193 kts 226°
2026-05-07 15:18 46.41975 6.37701 6575 ft 194 kts 226°
2026-05-07 15:18 46.41024 6.36298 6052 ft 196 kts 226°
2026-05-07 15:18 46.40065 6.34887 5522 ft 197 kts 227°
2026-05-07 15:19 46.39104 6.33467 5005 ft 198 kts 226°
2026-05-07 15:19 46.38145 6.32057 4604 ft 194 kts 227°
2026-05-07 15:19 46.37236 6.30697 4350 ft 184 kts 227°
2026-05-07 15:19 46.36336 6.29370 4131 ft 185 kts 227°
2026-05-07 15:20 46.35445 6.28055 4016 ft 180 kts 227°
2026-05-07 15:20 46.34559 6.26751 4017 ft 184 kts 227°
2026-05-07 15:20 46.33655 6.25405 3817 ft 186 kts 228°
2026-05-07 15:20 46.32785 6.24123 3563 ft 171 kts 227°
2026-05-07 15:21 46.31981 6.22939 3341 ft 159 kts 227°
2026-05-07 15:21 46.31223 6.21819 3136 ft 153 kts 227°
2026-05-07 15:21 46.30480 6.20726 2935 ft 153 kts 227°
2026-05-07 15:21 46.29738 6.19612 2722 ft 154 kts 228°
2026-05-07 15:22 46.28994 6.18501 2527 ft 154 kts 225°
2026-05-07 15:22 46.28238 6.17419 2337 ft 153 kts 225°
2026-05-07 15:22 46.27503 6.16317 2107 ft 154 kts 225°
2026-05-07 15:22 46.26748 6.15214 1900 ft 154 kts 223°
2026-05-07 15:23 46.26001 6.14110 1697 ft 154 kts 224°
2026-05-07 15:23 46.25250 6.13014 1475 ft 152 kts 224°
2026-05-07 15:23 46.24512 6.11937 1380 ft 144 kts 224°
2026-05-07 15:23 46.23890 6.11018 1382 ft 109 kts 226°
2026-05-07 15:24 46.23443 6.10363 1406 ft 67 kts 225°
2026-05-07 15:24 46.23218 6.10126 1411 ft 22 kts 200°
2026-05-07 15:24 46.23101 6.10097 1405 ft 10 kts 156°
2026-05-07 15:24 46.23079 6.10140 1406 ft 2 kts 96°
2026-05-07 15:25 46.23088 6.10165 1410 ft 8 kts 59°
2026-05-07 15:25 46.23144 6.10263 1409 ft 15 kts 48°
2026-05-07 15:25 46.23218 6.10376 1407 ft 16 kts 46°
2026-05-07 15:25 46.23304 6.10500 1407 ft 18 kts 45°
2026-05-07 15:26 46.23399 6.10635 1407 ft 20 kts 40°
2026-05-07 15:26 46.23501 6.10781 1405 ft 21 kts 45°
2026-05-07 15:26 46.23593 6.10915 1401 ft 14 kts 45°
2026-05-07 15:26 46.23660 6.11015 1406 ft 12 kts 53°
2026-05-07 15:27 46.23667 6.11049 1405 ft 1 kts 98°
2026-05-07 15:27 46.23650 6.11091 1407 ft 10 kts 129°
2026-05-07 15:27 46.23586 6.11186 1408 ft 14 kts 135°
2026-05-07 15:27 46.23544 6.11245 1407 ft 5 kts 136°